FW8685 Weather Reports


time (UTC)temp
C
wind
direction
speed
KPH
gust
KPH
rain 1hr
cm
rain 24hr
cm
rain mn
cm
humidity
%
barometer
mb
20260903105024 23 114 4.8 11.3 0.00 0.00 0.00 76 1010.6
20260903104547 23 117 4.8 11.3 0.00 0.00 0.00 76 1010.6
20260903104024 23 111 6.4 12.9 0.00 0.00 0.00 76 1010.6
20260903103523 23 117 6.4 12.9 0.00 0.00 0.00 75 1010.7
20260903103052 23 121 8.0 12.9 0.00 0.00 0.00 75 1010.6
20260903102522 23 115 8.0 12.9 0.00 0.00 0.00 75 1010.6
20260903102027 23 113 6.4 11.3 0.00 0.00 0.00 74 1010.7
20260903101554 23 115 4.8 11.3 0.00 0.00 0.00 73 1010.8
20260903101023 24 119 6.4 11.3 0.00 0.00 0.00 73 1010.6
20260903100525 24 111 6.4 11.3 0.00 0.00 0.00 73 1010.5
20260903100045 24 117 6.4 11.3 0.00 0.00 0.00 72 1010.6
20260903095523 24 110 6.4 11.3 0.00 0.00 0.00 72 1010.6
20260903095026 24 116 6.4 14.5 0.00 0.00 0.00 72 1010.6
20260903094545 24 117 8.0 14.5 0.00 0.00 0.00 71 1010.4
20260903094024 25 117 8.0 12.9 0.00 0.00 0.00 70 1010.5
20260903093525 25 109 6.4 12.9 0.00 0.00 0.00 70 1010.6
20260903093103 25 109 4.8 12.9 0.00 0.00 0.00 70 1010.6
20260903092527 25 109 6.4 12.9 0.00 0.00 0.00 69 1010.6
20260903092024 25 121 6.4 14.5 0.00 0.00 0.00 69 1010.6
20260903091545 25 121 8.0 14.5 0.00 0.00 0.00 69 1010.6
20260903091024 25 103 8.0 14.5 0.00 0.00 0.00 68 1010.6
20260903090524 25 119 6.4 14.5 0.00 0.00 0.00 68 1010.5
20260903090048 25 128 8.0 14.5 0.00 0.00 0.00 68 1010.4
20260903085523 25 119 8.0 14.5 0.00 0.00 0.00 67 1010.4
20260903085024 25 128 8.0 17.7 0.00 0.00 0.00 67 1010.4
20260903084543 25 119 9.7 17.7 0.00 0.00 0.00 67 1010.3
20260903084026 25 123 9.7 17.7 0.00 0.00 0.00 66 1010.3
20260903083527 25 114 9.7 17.7 0.00 0.00 0.00 66 1010.2
20260903083047 26 121 9.7 17.7 0.00 0.00 0.00 66 1010.2
20260903082526 26 111 11.3 17.7 0.00 0.00 0.00 66 1010.4
20260903082024 26 102 9.7 17.7 0.00 0.00 0.00 65 1010.3
20260903081547 26 133 11.3 17.7 0.00 0.00 0.00 65 1010.3
20260903081024 26 115 11.3 17.7 0.00 0.00 0.00 65 1010.3
20260903080524 26 113 9.7 19.3 0.00 0.00 0.00 65 1010.2
20260903080047 26 110 12.9 19.3 0.00 0.00 0.00 65 1010.2
20260903075527 26 130 9.7 19.3 0.00 0.00 0.00 65 1010.1
20260903075028 26 114 11.3 17.7 0.00 0.00 0.00 64 1010.1
20260903074542 26 126 11.3 17.7 0.00 0.00 0.00 64 1010.0
20260903074026 26 116 9.7 17.7 0.00 0.00 0.00 64 1010.1
20260903073524 26 119 11.3 17.7 0.00 0.00 0.00 64 1010.0
20260903073046 26 99 11.3 16.1 0.00 0.00 0.00 63 1010.3
20260903072523 26 109 9.7 14.5 0.00 0.00 0.00 63 1010.3
20260903072029 26 110 9.7 14.5 0.00 0.00 0.00 63 1010.2
20260903071544 26 115 9.7 17.7 0.00 0.00 0.00 63 1010.1
20260903071025 26 111 9.7 17.7 0.00 0.00 0.00 63 1010.1
20260903070525 26 119 11.3 17.7 0.00 0.00 0.00 63 1010.2
20260903070047 26 117 9.7 17.7 0.00 0.00 0.00 62 1010.1
20260903065525 26 103 11.3 17.7 0.00 0.00 0.00 62 1010.2
20260903065023 26 105 11.3 17.7 0.00 0.00 0.00 62 1010.1
20260903064546 26 111 11.3 17.7 0.00 0.00 0.00 62 1010.0
20260903064024 26 115 11.3 17.7 0.00 0.00 0.00 62 1010.1
20260903063524 26 105 11.3 17.7 0.00 0.00 0.00 61 1010.0
20260903063109 26 102 12.9 17.7 0.00 0.00 0.00 61 1009.9
20260903062524 26 107 11.3 17.7 0.00 0.00 0.00 61 1010.0
20260903062028 27 109 11.3 16.1 0.00 0.00 0.00 61 1010.1
20260903061543 27 105 11.3 14.5 0.00 0.00 0.00 60 1010.0
20260903061024 27 108 11.3 16.1 0.00 0.00 0.00 60 1010.0
20260903060526 27 101 9.7 17.7 0.00 0.00 0.00 60 1009.9
20260903060048 27 106 9.7 17.7 0.00 0.00 0.00 60 1010.0
20260903055527 27 103 11.3 17.7 0.00 0.00 0.00 59 1009.9
20260903055024 27 103 11.3 16.1 0.00 0.00 0.00 59 1009.9
20260903054545 27 116 11.3 16.1 0.00 0.00 0.00 59 1009.9
20260903054024 27 121 11.3 17.7 0.00 0.00 0.00 59 1009.9
20260903053524 27 106 11.3 17.7 0.00 0.00 0.00 58 1010.0
20260903053041 27 111 12.9 17.7 0.00 0.00 0.00 58 1009.9
20260903052525 27 100 12.9 17.7 0.00 0.00 0.00 58 1009.9
20260903052025 27 107 11.3 17.7 0.00 0.00 0.00 58 1009.9
20260903051548 27 107 11.3 17.7 0.00 0.00 0.00 57 1010.0
20260903051023 27 111 11.3 16.1 0.00 0.00 0.00 57 1009.9
20260903050525 28 108 11.3 17.7 0.00 0.00 0.00 57 1009.9
20260903050107 28 101 11.3 19.3 0.00 0.00 0.00 56 1009.9
20260903045524 28 101 11.3 19.3 0.00 0.00 0.00 56 1009.8
20260903045024 28 106 12.9 19.3 0.00 0.00 0.00 56 1009.8
20260903044551 28 103 11.3 19.3 0.00 0.00 0.00 55 1009.8
20260903044024 28 100 12.9 20.9 0.00 0.00 0.00 55 1009.8
20260903043524 28 115 12.9 20.9 0.00 0.00 0.00 55 1009.9
20260903043048 28 106 12.9 20.9 0.00 0.00 0.00 55 1009.9
20260903042523 28 88 12.9 20.9 0.00 0.00 0.00 54 1009.9
20260903042024 28 105 12.9 20.9 0.00 0.00 0.00 54 1009.9
20260903041545 28 105 14.5 20.9 0.00 0.00 0.00 54 1009.9
20260903041024 29 109 11.3 19.3 0.00 0.00 0.00 54 1009.9
20260903040526 29 98 14.5 20.9 0.00 0.00 0.00 53 1009.9
20260903040049 29 107 12.9 22.5 0.00 0.00 0.00 53 1010.0
20260903035521 29 107 14.5 22.5 0.00 0.00 0.00 53 1010.0
20260903035025 29 101 14.5 20.9 0.00 0.00 0.00 53 1010.0
20260903034548 29 105 12.9 22.5 0.00 0.00 0.00 53 1010.0
20260903034024 29 90 14.5 22.5 0.00 0.00 0.00 53 1010.0
20260903033528 29 104 12.9 20.9 0.00 0.00 0.00 52 1010.1
20260903033045 29 99 12.9 22.5 0.00 0.00 0.00 52 1010.2
20260903032526 29 91 12.9 22.5 0.00 0.00 0.00 52 1010.2
20260903032024 29 94 12.9 22.5 0.00 0.00 0.00 52 1010.2
20260903031545 29 96 14.5 22.5 0.00 0.00 0.00 52 1010.1
20260903031024 29 115 12.9 20.9 0.00 0.00 0.00 52 1010.0
20260903030525 29 105 12.9 20.9 0.00 0.00 0.00 52 1010.1
20260903030049 29 99 12.9 19.3 0.00 0.00 0.00 52 1010.1
20260903025525 29 93 12.9 19.3 0.00 0.00 0.00 52 1010.1
20260903025023 29 103 9.7 16.1 0.00 0.00 0.00 51 1010.0
20260903024545 30 99 9.7 16.1 0.00 0.00 0.00 51 1010.0
20260903024023 30 104 8.0 14.5 0.00 0.00 0.00 51 1010.0
20260903023523 30 103 8.0 14.5 0.00 0.00 0.00 51 1010.0
20260903023043 30 101 11.3 16.1 0.00 0.00 0.00 50 1010.0
20260903022525 30 105 9.7 17.7 0.00 0.00 0.00 50 1009.9
20260903022024 30 102 9.7 17.7 0.00 0.00 0.00 50 1009.8
20260903021546 30 112 11.3 17.7 0.00 0.00 0.00 49 1009.7
20260903021023 30 94 8.0 14.5 0.00 0.00 0.00 49 1009.7
20260903020523 30 101 8.0 14.5 0.00 0.00 0.00 49 1009.5
20260903020050 30 107 9.7 16.1 0.00 0.00 0.00 49 1009.4
20260903015523 31 109 9.7 16.1 0.00 0.00 0.00 48 1009.3
20260903015025 31 103 11.3 19.3 0.00 0.00 0.00 48 1009.3
20260903014549 31 94 9.7 19.3 0.00 0.00 0.00 48 1009.4
20260903014024 31 101 11.3 19.3 0.00 0.00 0.00 47 1009.2
20260903013525 31 111 11.3 14.5 0.00 0.00 0.00 47 1009.2
20260903013045 31 104 8.0 14.5 0.00 0.00 0.00 46 1009.1
20260903012530 32 109 9.7 14.5 0.00 0.00 0.00 46 1009.0
20260903012027 32 105 9.7 16.1 0.00 0.00 0.00 46 1009.0
20260903011558 32 114 9.7 16.1 0.00 0.00 0.00 45 1009.0
20260903011024 32 103 11.3 17.7 0.00 0.00 0.00 45 1009.0
20260903010527 32 112 11.3 17.7 0.00 0.00 0.00 44 1008.9
20260903010044 33 103 11.3 17.7 0.00 0.00 0.00 43 1009.0
20260903005526 33 101 12.9 20.9 0.00 0.00 0.00 42 1009.0
20260903005025 33 109 14.5 20.9 0.00 0.00 0.00 42 1008.9
20260903004541 33 104 12.9 20.9 0.00 0.00 0.00 41 1008.9
20260903004026 34 115 11.3 20.9 0.00 0.00 0.00 41 1009.0
20260903003525 35 103 14.5 20.9 0.00 0.00 0.00 40 1009.0
20260903003046 35 107 14.5 20.9 0.00 0.00 0.00 40 1009.1
20260903002529 35 94 14.5 20.9 0.00 0.00 0.00 39 1009.1
20260903002024 35 108 14.5 24.1 0.00 0.00 0.00 39 1009.0
20260903001543 35 108 12.9 24.1 0.00 0.00 0.00 39 1009.0
20260903001021 36 124 14.5 24.1 0.00 0.00 0.00 38 1009.0
20260903000521 36 106 16.1 22.5 0.00 0.00 0.00 38 1009.0
20260903000046 36 109 12.9 27.4 0.00 0.00 0.00 37 1009.2
20260902235524 36 123 16.1 27.4 0.00 0.00 0.00 36 1009.0
20260902235023 36 107 16.1 27.4 0.00 0.00 0.00 36 1009.0
20260902234547 36 109 14.5 30.6 0.00 0.00 0.00 36 1009.0
20260902234023 36 102 17.7 30.6 0.00 0.00 0.00 36 1009.1
20260902233526 36 110 20.9 33.8 0.00 0.00 0.00 35 1009.0
20260902233053 36 126 20.9 33.8 0.00 0.00 0.00 35 1009.0
20260902232526 36 129 19.3 33.8 0.00 0.00 0.00 35 1009.1
20260902232023 37 135 20.9 33.8 0.00 0.00 0.00 34 1009.1
20260902231558 37 139 20.9 32.2 0.00 0.00 0.00 35 1009.0
20260902231021 37 98 17.7 32.2 0.00 0.00 0.00 35 1009.0
20260902230524 37 100 17.7 29.0 0.00 0.00 0.00 35 1009.0
20260902230048 37 102 19.3 30.6 0.00 0.00 0.00 35 1009.0
20260902225524 37 101 19.3 30.6 0.00 0.00 0.00 35 1009.1
20260902225024 37 116 17.7 30.6 0.00 0.00 0.00 35 1009.1
20260902224553 37 120 19.3 30.6 0.00 0.00 0.00 35 1009.1
20260902224023 38 130 20.9 27.4 0.00 0.00 0.00 34 1009.1
20260902223525 38 114 17.7 29.0 0.00 0.00 0.00 34 1009.3
20260902223043 38 119 16.1 30.6 0.00 0.00 0.00 33 1009.3
20260902222524 38 144 17.7 30.6 0.00 0.00 0.00 32 1009.3
20260902222024 38 124 16.1 30.6 0.00 0.00 0.00 32 1009.3
20260902221550 38 128 19.3 30.6 0.00 0.00 0.00 31 1009.4
20260902221027 38 103 17.7 30.6 0.00 0.00 0.00 32 1009.4
20260902220524 37 115 14.5 30.6 0.00 0.00 0.00 32 1009.4
20260902220044 38 119 17.7 29.0 0.00 0.00 0.00 32 1009.5
20260902215524 38 128 16.1 29.0 0.00 0.00 0.00 32 1009.4
20260902215024 38 123 17.7 30.6 0.00 0.00 0.00 31 1009.5
20260902214546 38 117 19.3 32.2 0.00 0.00 0.00 32 1009.5
20260902214024 38 139 19.3 32.2 0.00 0.00 0.00 30 1009.6
20260902213525 38 120 17.7 32.2 0.00 0.00 0.00 29 1009.6
20260902213052 38 153 12.9 32.2 0.00 0.00 0.00 30 1009.6
20260902212525 38 123 17.7 33.8 0.00 0.00 0.00 30 1009.7
20260902212024 38 122 24.1 33.8 0.00 0.00 0.00 30 1009.7
20260902211552 38 129 8.0 22.5 0.00 0.00 0.00 31 1009.8
20260902211026 38 146 11.3 27.4 0.00 0.00 0.00 30 1010.0
20260902210525 38 144 11.3 32.2 0.00 0.00 0.00 31 1010.0
20260902210047 38 145 19.3 32.2 0.00 0.00 0.00 31 1010.1
20260902205525 38 103 20.9 32.2 0.00 0.00 0.00 32 1010.1
20260902205024 38 141 17.7 32.2 0.00 0.00 0.00 32 1010.1
20260902204547 38 169 14.5 27.4 0.00 0.00 0.00 31 1010.3
20260902204024 38 157 11.3 27.4 0.00 0.00 0.00 31 1010.3
20260902203523 38 126 9.7 30.6 0.00 0.00 0.00 31 1010.3
20260902203046 38 151 14.5 30.6 0.00 0.00 0.00 30 1010.4
20260902202524 39 113 16.1 25.7 0.00 0.00 0.00 31 1010.5
20260902202024 39 138 9.7 29.0 0.00 0.00 0.00 32 1010.6
20260902201542 38 178 17.7 37.0 0.00 0.00 0.00 31 1010.7
20260902201023 38 115 17.7 37.0 0.00 0.00 0.00 31 1010.6
20260902200528 38 117 19.3 32.2 0.00 0.00 0.00 33 1010.7
20260902200045 38 96 17.7 33.8 0.00 0.00 0.00 33 1010.8
20260902195523 38 112 19.3 33.8 0.00 0.00 0.00 32 1010.8
20260902195025 39 101 14.5 29.0 0.00 0.00 0.00 33 1010.8
20260902194544 38 102 17.7 29.0 0.00 0.00 0.00 33 1010.9
20260902194025 38 106 16.1 33.8 0.00 0.00 0.00 32 1011.0
20260902193524 38 90 17.7 33.8 0.00 0.00 0.00 33 1011.1
20260902193049 38 127 19.3 30.6 0.00 0.00 0.00 33 1011.1
20260902192524 38 101 17.7 30.6 0.00 0.00 0.00 35 1011.1
20260902192024 38 111 14.5 30.6 0.00 0.00 0.00 35 1011.3
20260902191546 38 123 19.3 30.6 0.00 0.00 0.00 34 1011.3
20260902191026 38 117 16.1 38.6 0.00 0.00 0.00 37 1011.4
20260902190525 38 117 20.9 38.6 0.00 0.00 0.00 37 1011.4
20260902190046 38 134 14.5 30.6 0.00 0.00 0.00 36 1011.6
20260902185524 38 149 19.3 40.2 0.00 0.00 0.00 36 1011.7
20260902185024 38 96 20.9 40.2 0.00 0.00 0.00 36 1011.7
20260902184552 38 104 20.9 37.0 0.00 0.00 0.00 36 1011.8
20260902184023 38 144 11.3 29.0 0.00 0.00 0.00 37 1011.9
20260902183524 38 126 19.3 32.2 0.00 0.00 0.00 38 1012.0
20260902183045 37 124 17.7 37.0 0.00 0.00 0.00 37 1012.0
20260902182523 37 148 16.1 37.0 0.00 0.00 0.00 37 1012.2
20260902182025 37 107 19.3 32.2 0.00 0.00 0.00 38 1012.2
20260902181546 37 103 16.1 32.2 0.00 0.00 0.00 39 1012.3
20260902181026 37 109 20.9 33.8 0.00 0.00 0.00 39 1012.4
20260902180523 37 113 22.5 37.0 0.00 0.00 0.00 39 1012.4
20260902175522 37 113 14.5 27.4 0.00 0.00 0.00 39 1012.4
20260902175025 37 121 16.1 32.2 0.00 0.00 0.00 40 1012.5
20260902174549 37 136 17.7 37.0 0.00 0.00 0.00 40 1012.7
20260902174024 37 153 17.7 37.0 0.00 0.00 0.00 40 1012.7
20260902173526 37 147 25.7 37.0 0.00 0.00 0.00 40 1012.8
20260902173046 36 154 16.1 30.6 0.00 0.00 0.00 42 1012.9
20260902172526 36 130 16.1 30.6 0.00 0.00 0.00 41 1012.9
20260902172024 36 132 19.3 30.6 0.00 0.00 0.00 42 1013.0
20260902171548 36 128 22.5 30.6 0.00 0.00 0.00 42 1013.0
20260902171024 36 102 16.1 30.6 0.00 0.00 0.00 42 1013.0
20260902170525 36 122 14.5 30.6 0.00 0.00 0.00 43 1013.1
20260902170047 36 138 17.7 29.0 0.00 0.00 0.00 43 1013.2
20260902165525 36 124 16.1 32.2 0.00 0.00 0.00 43 1013.1
20260902165028 35 146 16.1 32.2 0.00 0.00 0.00 44 1013.1
20260902164545 35 136 16.1 30.6 0.00 0.00 0.00 44 1013.2
20260902164024 35 155 14.5 35.4 0.00 0.00 0.00 45 1013.3
20260902163524 35 144 17.7 35.4 0.00 0.00 0.00 45 1013.3
20260902163051 35 153 19.3 33.8 0.00 0.00 0.00 45 1013.5
20260902162524 35 110 14.5 29.0 0.00 0.00 0.00 46 1013.5
20260902162024 35 157 16.1 30.6 0.00 0.00 0.00 45 1013.5
20260902161553 35 130 17.7 30.6 0.00 0.00 0.00 46 1013.5
20260902161026 34 150 16.1 35.4 0.00 0.00 0.00 47 1013.5
20260902160525 34 146 19.3 38.6 0.00 0.00 0.00 46 1013.5
20260902160044 34 103 14.5 38.6 0.00 0.00 0.00 47 1013.6
20260902155528 34 143 24.1 38.6 0.00 0.00 0.00 47 1013.6
20260902155026 34 138 14.5 32.2 0.00 0.00 0.00 48 1013.5
20260902154544 33 127 14.5 32.2 0.00 0.00 0.00 48 1013.7
20260902154025 33 161 19.3 32.2 0.00 0.00 0.00 48 1013.6
20260902153525 33 159 19.3 32.2 0.00 0.00 0.00 49 1013.6
20260902153050 33 137 17.7 35.4 0.00 0.00 0.00 49 1013.6
20260902152526 32 130 16.1 35.4 0.00 0.00 0.00 51 1013.6
20260902152023 32 133 19.3 35.4 0.00 0.00 0.00 51 1013.6
20260902151545 32 154 14.5 29.0 0.00 0.00 0.00 52 1013.6
20260902151027 32 131 14.5 25.7 0.00 0.00 0.00 53 1013.6
20260902150524 32 123 17.7 32.2 0.00 0.00 0.00 53 1013.6
20260902150045 32 138 20.9 32.2 0.00 0.00 0.00 53 1013.6
20260902145523 31 103 16.1 32.2 0.00 0.00 0.00 54 1013.6
20260902145026 31 153 17.7 32.2 0.00 0.00 0.00 54 1013.6
20260902144543 31 148 16.1 32.2 0.00 0.00 0.00 55 1013.5
20260902144024 31 140 16.1 29.0 0.00 0.00 0.00 56 1013.6
20260902143523 30 119 11.3 25.7 0.00 0.00 0.00 57 1013.6
20260902143045 30 116 14.5 25.7 0.00 0.00 0.00 57 1013.6
20260902142520 30 123 11.3 24.1 0.00 0.00 0.00 59 1013.6
20260902142025 29 119 12.9 22.5 0.00 0.00 0.00 60 1013.6
20260902141544 29 119 9.7 19.3 0.00 0.00 0.00 61 1013.6
20260902141024 28 111 11.3 19.3 0.00 0.00 0.00 62 1013.5
20260902140524 28 124 11.3 19.3 0.00 0.00 0.00 63 1013.6
20260902140042 28 132 9.7 19.3 0.00 0.00 0.00 64 1013.6
20260902135524 27 112 9.7 16.1 0.00 0.00 0.00 65 1013.7
20260902135025 27 113 9.7 17.7 0.00 0.00 0.00 66 1013.6
20260902134544 27 107 9.7 17.7 0.00 0.00 0.00 67 1013.6
20260902134022 26 109 9.7 17.7 0.00 0.00 0.00 68 1013.6
20260902133524 26 103 9.7 17.7 0.00 0.00 0.00 69 1013.5
20260902133045 25 98 11.3 16.1 0.00 0.00 0.00 70 1013.5
20260902132524 25 129 9.7 16.1 0.00 0.00 0.00 71 1013.4
20260902132023 25 97 11.3 16.1 0.00 0.00 0.00 72 1013.4
20260902131544 24 107 9.7 16.1 0.00 0.00 0.00 74 1013.5
20260902131025 23 115 11.3 14.5 0.00 0.00 0.00 75 1013.4
20260902130531 23 128 8.0 14.5 0.00 0.00 0.00 76 1013.5
20260902130056 23 112 8.0 12.9 0.00 0.00 0.00 77 1013.3
20260902125523 22 105 6.4 11.3 0.00 0.00 0.00 78 1013.2
20260902125027 22 94 4.8 12.9 0.00 0.00 0.00 79 1013.2
20260902124545 22 117 6.4 12.9 0.00 0.00 0.00 79 1013.1
20260902124023 22 115 6.4 11.3 0.00 0.00 0.00 79 1013.0
20260902123524 21 110 4.8 9.7 0.00 0.00 0.00 79 1013.0
20260902123054 21 112 4.8 6.4 0.00 0.00 0.00 78 1013.0
20260902122524 21 118 4.8 6.4 0.00 0.00 0.00 78 1012.9
20260902122022 21 115 4.8 9.7 0.00 0.00 0.00 78 1012.8
20260902121541 21 117 3.2 9.7 0.00 0.00 0.00 78 1012.8
20260902121025 21 119 4.8 9.7 0.00 0.00 0.00 77 1012.8
20260902120525 21 121 4.8 9.7 0.00 0.00 0.00 77 1012.8
20260902120044 21 111 4.8 11.3 0.00 0.00 0.00 77 1012.8
20260902115526 21 117 4.8 11.3 0.00 0.00 0.00 77 1012.8
20260902115025 21 103 6.4 12.9 0.00 0.00 0.00 77 1012.7
20260902114543 21 116 6.4 12.9 0.00 0.00 0.00 77 1012.6
20260902114022 22 111 4.8 11.3 0.00 0.00 0.00 76 1012.6
20260902113523 22 101 6.4 11.3 0.00 0.00 0.00 76 1012.6
20260902113047 22 107 6.4 11.3 0.00 0.00 0.00 76 1012.6
20260902112528 22 111 4.8 9.7 0.00 0.00 0.00 75 1012.7
20260902112024 22 103 4.8 6.4 0.00 0.00 0.00 75 1012.5
20260902111547 22 109 4.8 6.4 0.00 0.00 0.00 75 1012.6
20260902111024 22 119 4.8 9.7 0.00 0.00 0.00 75 1012.6
20260902110528 22 119 3.2 12.9 0.00 0.00 0.00 75 1012.7
20260902110048 22 120 4.8 12.9 0.00 0.00 0.00 75 1012.5
20260902105524 22 107 9.7 12.9 0.00 0.00 0.00 75 1012.4